Year,Month,Day,Hour,Minute,Value (Times are PST for windspeed in km/hr)
2015,12,13,00,00,1.50
2015,12,13,00,01,1.20
2015,12,13,00,02,2.50
2015,12,13,00,03,1.90
2015,12,13,00,04,0.20
2015,12,13,00,05,0.90
2015,12,13,00,06,1.20
2015,12,13,00,07,0.60
2015,12,13,00,08,0.00
2015,12,13,00,09,0.00
2015,12,13,00,10,0.00
2015,12,13,00,11,0.00
2015,12,13,00,12,0.00
2015,12,13,00,13,0.00
2015,12,13,00,14,0.00
2015,12,13,00,15,0.00
2015,12,13,00,16,0.00
2015,12,13,00,17,0.00
2015,12,13,00,18,0.00
2015,12,13,00,19,0.00
2015,12,13,00,20,0.00
2015,12,13,00,21,0.00
2015,12,13,00,22,3.00
2015,12,13,00,23,1.10
2015,12,13,00,24,1.70
2015,12,13,00,25,1.40
2015,12,13,00,26,1.30
2015,12,13,00,27,1.00
2015,12,13,00,28,2.50
2015,12,13,00,29,0.40
2015,12,13,00,30,0.20
2015,12,13,00,31,0.00
2015,12,13,00,32,0.80
2015,12,13,00,33,0.70
2015,12,13,00,34,1.90
2015,12,13,00,35,0.40
2015,12,13,00,36,0.60
2015,12,13,00,37,2.00
2015,12,13,00,38,1.40
2015,12,13,00,39,0.80
2015,12,13,00,40,0.70
2015,12,13,00,41,0.60
2015,12,13,00,42,2.30
2015,12,13,00,43,1.60
2015,12,13,00,44,1.10
2015,12,13,00,45,0.10
2015,12,13,00,46,0.70
2015,12,13,00,47,0.50
2015,12,13,00,48,0.10
2015,12,13,00,49,0.50
2015,12,13,00,50,1.40
2015,12,13,00,51,0.10
2015,12,13,00,52,0.30
2015,12,13,00,53,0.40
2015,12,13,00,54,0.00
2015,12,13,00,55,0.00
2015,12,13,00,56,0.00
2015,12,13,00,57,0.10
2015,12,13,00,58,0.40
2015,12,13,00,59,0.80
2015,12,13,01,00,1.40
2015,12,13,01,01,0.10
2015,12,13,01,02,0.10
2015,12,13,01,03,0.30
2015,12,13,01,04,0.30
2015,12,13,01,05,0.00
2015,12,13,01,06,0.00
2015,12,13,01,07,1.10
2015,12,13,01,08,1.00
2015,12,13,01,09,2.00
2015,12,13,01,10,1.30
2015,12,13,01,11,1.10
2015,12,13,01,12,1.00
2015,12,13,01,13,0.40
2015,12,13,01,14,0.80
2015,12,13,01,15,0.20
2015,12,13,01,16,1.40
2015,12,13,01,17,0.80
2015,12,13,01,18,0.90
2015,12,13,01,19,1.10
2015,12,13,01,20,0.50
2015,12,13,01,21,0.00
2015,12,13,01,22,1.60
2015,12,13,01,23,2.60
2015,12,13,01,24,1.30
2015,12,13,01,25,2.00
2015,12,13,01,26,0.50
2015,12,13,01,27,1.20
2015,12,13,01,28,0.00
2015,12,13,01,29,0.00
2015,12,13,01,30,0.00
2015,12,13,01,31,1.80
2015,12,13,01,32,1.60
2015,12,13,01,33,1.40
2015,12,13,01,34,1.10
2015,12,13,01,35,1.90
2015,12,13,01,36,2.20
2015,12,13,01,37,2.20
2015,12,13,01,38,2.90
2015,12,13,01,39,1.70
2015,12,13,01,40,1.80
2015,12,13,01,41,1.40
2015,12,13,01,42,1.60
2015,12,13,01,43,0.70
2015,12,13,01,44,1.30
2015,12,13,01,45,1.50
2015,12,13,01,46,2.00
2015,12,13,01,47,0.90
2015,12,13,01,48,0.10
2015,12,13,01,49,1.70
2015,12,13,01,50,1.80
2015,12,13,01,51,1.10
2015,12,13,01,52,1.30
2015,12,13,01,53,1.00
2015,12,13,01,54,0.40
2015,12,13,01,55,1.30
2015,12,13,01,56,0.80
2015,12,13,01,57,1.70
2015,12,13,01,58,0.80
2015,12,13,01,59,0.70
2015,12,13,02,00,0.70
2015,12,13,02,01,1.40
2015,12,13,02,02,1.90
2015,12,13,02,03,1.00
2015,12,13,02,04,0.00
2015,12,13,02,05,0.20
2015,12,13,02,06,0.40
2015,12,13,02,07,0.20
2015,12,13,02,08,1.10
2015,12,13,02,09,1.20
2015,12,13,02,10,1.90
2015,12,13,02,11,1.90
2015,12,13,02,12,1.90
2015,12,13,02,13,1.70
2015,12,13,02,14,1.70
2015,12,13,02,15,1.70
2015,12,13,02,16,1.90
2015,12,13,02,17,1.90
2015,12,13,02,18,1.40
2015,12,13,02,19,1.40
2015,12,13,02,20,1.80
2015,12,13,02,21,1.40
2015,12,13,02,22,1.90
2015,12,13,02,23,2.10
2015,12,13,02,24,2.30
2015,12,13,02,25,2.10
2015,12,13,02,26,2.00
2015,12,13,02,27,2.20
2015,12,13,02,28,2.30
2015,12,13,02,29,1.90
2015,12,13,02,30,1.40
2015,12,13,02,31,1.30
2015,12,13,02,32,1.90
2015,12,13,02,33,1.90
2015,12,13,02,34,1.90
2015,12,13,02,35,1.70
2015,12,13,02,36,2.10
2015,12,13,02,37,1.10
2015,12,13,02,38,1.50
2015,12,13,02,39,1.30
2015,12,13,02,40,0.00
2015,12,13,02,41,0.00
2015,12,13,02,42,0.00
2015,12,13,02,43,1.30
2015,12,13,02,44,0.00
2015,12,13,02,45,0.00
2015,12,13,02,46,0.00
2015,12,13,02,47,0.00
2015,12,13,02,48,0.00
2015,12,13,02,49,0.00
2015,12,13,02,50,0.00
2015,12,13,02,51,0.00
2015,12,13,02,52,2.00
2015,12,13,02,53,1.80
2015,12,13,02,54,1.30
2015,12,13,02,55,2.10
2015,12,13,02,56,1.90
2015,12,13,02,57,1.90
2015,12,13,02,58,1.60
2015,12,13,02,59,1.60
2015,12,13,03,00,1.60
2015,12,13,03,01,1.30
2015,12,13,03,02,2.10
2015,12,13,03,03,1.90
2015,12,13,03,04,1.20
2015,12,13,03,05,1.80
2015,12,13,03,06,1.00
2015,12,13,03,07,2.90
2015,12,13,03,08,1.70
2015,12,13,03,09,1.70
2015,12,13,03,10,1.00
2015,12,13,03,11,0.50
2015,12,13,03,12,1.40
2015,12,13,03,13,0.60
2015,12,13,03,14,1.10
2015,12,13,03,15,0.80
2015,12,13,03,16,1.10
2015,12,13,03,17,1.30
2015,12,13,03,18,1.20
2015,12,13,03,19,2.00
2015,12,13,03,20,0.60
2015,12,13,03,21,2.10
2015,12,13,03,22,2.20
2015,12,13,03,23,2.10
2015,12,13,03,24,1.70
2015,12,13,03,25,1.40
2015,12,13,03,26,2.10
2015,12,13,03,27,1.70
2015,12,13,03,28,1.30
2015,12,13,03,29,1.90
2015,12,13,03,30,1.00
2015,12,13,03,31,2.30
2015,12,13,03,32,1.60
2015,12,13,03,33,1.30
2015,12,13,03,34,1.40
2015,12,13,03,35,3.30
2015,12,13,03,36,1.40
2015,12,13,03,37,1.40
2015,12,13,03,38,1.00
2015,12,13,03,39,1.90
2015,12,13,03,40,1.10
2015,12,13,03,41,2.00
2015,12,13,03,42,1.00
2015,12,13,03,43,1.30
2015,12,13,03,44,0.70
2015,12,13,03,45,0.50
2015,12,13,03,46,0.00
2015,12,13,03,47,0.00
2015,12,13,03,48,0.00
2015,12,13,03,49,0.00
2015,12,13,03,50,0.00
2015,12,13,03,51,0.00
2015,12,13,03,52,0.00
2015,12,13,03,53,0.00
2015,12,13,03,54,0.00
2015,12,13,03,55,0.40
2015,12,13,03,56,2.10
2015,12,13,03,57,2.60
2015,12,13,03,58,1.40
2015,12,13,03,59,1.30
2015,12,13,04,00,2.30
2015,12,13,04,01,2.30
2015,12,13,04,02,1.90
2015,12,13,04,03,1.90
2015,12,13,04,04,2.00
2015,12,13,04,05,2.20
2015,12,13,04,06,2.00
2015,12,13,04,07,3.30
2015,12,13,04,08,2.10
2015,12,13,04,09,2.10
2015,12,13,04,10,1.20
2015,12,13,04,11,1.70
2015,12,13,04,12,2.20
2015,12,13,04,13,1.60
2015,12,13,04,14,1.10
2015,12,13,04,15,2.10
2015,12,13,04,16,2.30
2015,12,13,04,17,1.40
2015,12,13,04,18,1.50
2015,12,13,04,19,1.90
2015,12,13,04,20,2.00
2015,12,13,04,21,1.80
2015,12,13,04,22,1.90
2015,12,13,04,23,1.80
2015,12,13,04,24,1.80
2015,12,13,04,25,2.60
2015,12,13,04,26,2.20
2015,12,13,04,27,2.20
2015,12,13,04,28,2.00
2015,12,13,04,29,1.80
2015,12,13,04,30,2.00
2015,12,13,04,31,2.30
2015,12,13,04,32,1.70
2015,12,13,04,33,2.60
2015,12,13,04,34,2.80
2015,12,13,04,35,1.70
2015,12,13,04,36,1.30
2015,12,13,04,37,2.00
2015,12,13,04,38,2.00
2015,12,13,04,39,1.90
2015,12,13,04,40,2.10
2015,12,13,04,41,1.80
2015,12,13,04,42,1.10
2015,12,13,04,43,0.80
2015,12,13,04,44,0.00
2015,12,13,04,45,0.00
2015,12,13,04,46,0.00
2015,12,13,04,47,0.20
2015,12,13,04,48,0.10
2015,12,13,04,49,0.40
2015,12,13,04,50,0.90
2015,12,13,04,51,1.70
2015,12,13,04,52,2.90
2015,12,13,04,53,2.50
2015,12,13,04,54,2.10
2015,12,13,04,55,0.70
2015,12,13,04,56,1.30
2015,12,13,04,57,0.20
2015,12,13,04,58,0.60
2015,12,13,04,59,0.60
2015,12,13,05,00,0.70
2015,12,13,05,01,1.30
2015,12,13,05,02,1.50
2015,12,13,05,03,1.10
2015,12,13,05,04,0.00
2015,12,13,05,05,0.00
2015,12,13,05,06,0.00
2015,12,13,05,07,0.00
2015,12,13,05,08,0.10
2015,12,13,05,09,0.00
2015,12,13,05,10,0.00
2015,12,13,05,11,0.00
2015,12,13,05,12,0.00
2015,12,13,05,13,0.00
2015,12,13,05,14,0.30
2015,12,13,05,15,0.70
2015,12,13,05,16,0.50
2015,12,13,05,17,0.90
2015,12,13,05,18,0.10
2015,12,13,05,19,0.30
2015,12,13,05,20,0.00
2015,12,13,05,21,0.00
2015,12,13,05,22,0.00
2015,12,13,05,23,1.70
2015,12,13,05,24,0.70
2015,12,13,05,25,0.00
2015,12,13,05,26,0.00
2015,12,13,05,27,0.00
2015,12,13,05,28,0.10
2015,12,13,05,29,1.10
2015,12,13,05,30,0.50
2015,12,13,05,31,1.10
2015,12,13,05,32,0.10
2015,12,13,05,33,0.00
2015,12,13,05,34,0.00
2015,12,13,05,35,0.00
2015,12,13,05,36,0.00
2015,12,13,05,37,0.00
2015,12,13,05,38,0.00
2015,12,13,05,39,0.00
2015,12,13,05,40,0.00
2015,12,13,05,41,0.00
2015,12,13,05,42,0.00
2015,12,13,05,43,0.00
2015,12,13,05,44,0.00
2015,12,13,05,45,0.00
2015,12,13,05,46,0.00
2015,12,13,05,47,0.00
2015,12,13,05,48,0.00
2015,12,13,05,49,0.00
2015,12,13,05,50,0.00
2015,12,13,05,51,0.00
2015,12,13,05,52,0.00
2015,12,13,05,53,0.00
2015,12,13,05,54,0.00
2015,12,13,05,55,0.00
2015,12,13,05,56,0.00
2015,12,13,05,57,0.00
2015,12,13,05,58,0.00
2015,12,13,05,59,0.00
2015,12,13,06,00,0.00
2015,12,13,06,01,0.00
2015,12,13,06,02,0.00
2015,12,13,06,03,0.00
2015,12,13,06,04,0.00
2015,12,13,06,05,0.00
2015,12,13,06,06,0.00
2015,12,13,06,07,0.00
2015,12,13,06,08,0.00
2015,12,13,06,09,0.00
2015,12,13,06,10,0.00
2015,12,13,06,11,0.00
2015,12,13,06,12,0.00
2015,12,13,06,13,0.00
2015,12,13,06,14,0.00
2015,12,13,06,15,0.00
2015,12,13,06,16,0.00
2015,12,13,06,17,0.00
2015,12,13,06,18,0.00
2015,12,13,06,19,0.00
2015,12,13,06,20,0.00
2015,12,13,06,21,0.00
2015,12,13,06,22,0.00
2015,12,13,06,23,0.00
2015,12,13,06,24,0.00
2015,12,13,06,25,0.00
2015,12,13,06,26,0.00
2015,12,13,06,27,0.00
2015,12,13,06,28,0.00
2015,12,13,06,29,0.00
2015,12,13,06,30,0.00
2015,12,13,06,31,0.00
2015,12,13,06,32,0.00
2015,12,13,06,33,0.00
2015,12,13,06,34,0.00
2015,12,13,06,35,0.00
2015,12,13,06,36,0.00
2015,12,13,06,37,0.00
2015,12,13,06,38,0.00
2015,12,13,06,39,0.00
2015,12,13,06,40,0.00
2015,12,13,06,41,0.00
2015,12,13,06,42,0.00
2015,12,13,06,43,0.00
2015,12,13,06,44,0.00
2015,12,13,06,45,0.00
2015,12,13,06,46,0.00
2015,12,13,06,47,0.00
2015,12,13,06,48,0.00
2015,12,13,06,49,0.00
2015,12,13,06,50,0.00
2015,12,13,06,51,0.00
2015,12,13,06,52,0.00
2015,12,13,06,53,0.00
2015,12,13,06,54,0.00
2015,12,13,06,55,0.00
2015,12,13,06,56,0.00
2015,12,13,06,57,0.00
2015,12,13,06,58,0.00
2015,12,13,06,59,0.00
2015,12,13,07,00,0.00
2015,12,13,07,01,0.00
2015,12,13,07,02,0.00
2015,12,13,07,03,0.00
2015,12,13,07,04,0.00
2015,12,13,07,05,0.00
2015,12,13,07,06,0.00
2015,12,13,07,07,0.00
2015,12,13,07,08,0.00
2015,12,13,07,09,0.00
2015,12,13,07,10,0.00
2015,12,13,07,11,0.00
2015,12,13,07,12,0.00
2015,12,13,07,13,0.00
2015,12,13,07,14,0.00
2015,12,13,07,15,0.00
2015,12,13,07,16,0.00
2015,12,13,07,17,0.00
2015,12,13,07,18,0.00
2015,12,13,07,19,0.00
2015,12,13,07,20,0.00
2015,12,13,07,21,0.00
2015,12,13,07,22,0.00
2015,12,13,07,23,0.00
2015,12,13,07,24,0.00
2015,12,13,07,25,0.00
2015,12,13,07,26,0.00
2015,12,13,07,27,0.00
2015,12,13,07,28,0.00
2015,12,13,07,29,0.00
2015,12,13,07,30,0.00
2015,12,13,07,31,0.00
2015,12,13,07,32,0.00
2015,12,13,07,33,0.00
2015,12,13,07,34,0.00
2015,12,13,07,35,0.00
2015,12,13,07,36,0.00
2015,12,13,07,37,0.90
2015,12,13,07,38,0.10
2015,12,13,07,39,0.00
2015,12,13,07,40,0.00
2015,12,13,07,41,0.00
2015,12,13,07,42,0.00
2015,12,13,07,43,0.00
2015,12,13,07,44,0.00
2015,12,13,07,45,0.00
2015,12,13,07,46,0.00
2015,12,13,07,47,0.00
2015,12,13,07,48,0.00
2015,12,13,07,49,0.00
2015,12,13,07,50,0.10
2015,12,13,07,51,2.10
2015,12,13,07,52,1.70
2015,12,13,07,53,1.00
2015,12,13,07,54,0.70
2015,12,13,07,55,0.70
2015,12,13,07,56,1.70
2015,12,13,07,57,1.60
2015,12,13,07,58,0.40
2015,12,13,07,59,1.40
2015,12,13,08,00,0.60
2015,12,13,08,01,0.20
2015,12,13,08,02,0.00
2015,12,13,08,03,0.10
2015,12,13,08,04,0.40
2015,12,13,08,05,0.60
2015,12,13,08,06,0.70
2015,12,13,08,07,0.70
2015,12,13,08,08,1.10
2015,12,13,08,09,0.20
2015,12,13,08,10,0.00
2015,12,13,08,11,0.10
2015,12,13,08,12,0.10
2015,12,13,08,13,0.00
2015,12,13,08,14,0.00
2015,12,13,08,15,0.00
2015,12,13,08,16,0.00
2015,12,13,08,17,0.00
2015,12,13,08,18,0.00
2015,12,13,08,19,0.00
2015,12,13,08,20,0.10
2015,12,13,08,21,0.00
2015,12,13,08,22,0.00
2015,12,13,08,23,0.00
2015,12,13,08,24,0.00
2015,12,13,08,25,0.00
2015,12,13,08,26,0.00
2015,12,13,08,27,0.00
2015,12,13,08,28,0.00
2015,12,13,08,29,0.00
2015,12,13,08,30,0.80
2015,12,13,08,31,1.30
2015,12,13,08,32,1.40
2015,12,13,08,33,1.60
2015,12,13,08,34,1.00
2015,12,13,08,35,0.50
2015,12,13,08,36,0.00
2015,12,13,08,37,0.00
2015,12,13,08,38,0.00
2015,12,13,08,39,0.00
2015,12,13,08,40,0.00
2015,12,13,08,41,0.00
2015,12,13,08,42,0.00
2015,12,13,08,43,0.00
2015,12,13,08,44,0.00
2015,12,13,08,45,0.00
2015,12,13,08,46,0.00
2015,12,13,08,47,0.00
2015,12,13,08,48,0.00
2015,12,13,08,49,0.00
2015,12,13,08,50,0.00
2015,12,13,08,51,0.00
2015,12,13,08,52,0.00
2015,12,13,08,53,0.00
2015,12,13,08,54,0.00
2015,12,13,08,55,0.00
2015,12,13,08,56,0.00
2015,12,13,08,57,0.00
2015,12,13,08,58,0.00
2015,12,13,08,59,0.00
2015,12,13,09,00,0.00
2015,12,13,09,01,0.00
2015,12,13,09,02,0.00
2015,12,13,09,03,0.00
2015,12,13,09,04,0.00
2015,12,13,09,05,0.00
2015,12,13,09,06,0.00
2015,12,13,09,07,0.00
2015,12,13,09,08,0.00
2015,12,13,09,09,0.00
2015,12,13,09,10,0.00
2015,12,13,09,11,0.00
2015,12,13,09,12,0.00
2015,12,13,09,13,0.00
2015,12,13,09,14,0.00
2015,12,13,09,15,0.00
2015,12,13,09,16,0.00
2015,12,13,09,17,0.00
2015,12,13,09,18,0.00
2015,12,13,09,19,0.00
2015,12,13,09,20,0.00
2015,12,13,09,21,0.00
2015,12,13,09,22,0.00
2015,12,13,09,23,0.00
2015,12,13,09,24,0.00
2015,12,13,09,25,0.00
2015,12,13,09,26,0.30
2015,12,13,09,27,0.10
2015,12,13,09,28,0.00
2015,12,13,09,29,0.00
2015,12,13,09,30,0.00
2015,12,13,09,31,0.00
2015,12,13,09,32,0.00
2015,12,13,09,33,0.00
2015,12,13,09,34,0.00
2015,12,13,09,35,0.00
2015,12,13,09,36,0.00
2015,12,13,09,37,0.00
2015,12,13,09,38,0.00
2015,12,13,09,39,0.00
2015,12,13,09,40,0.10
2015,12,13,09,41,1.60
2015,12,13,09,42,0.80
2015,12,13,09,43,0.10
2015,12,13,09,44,0.30
2015,12,13,09,45,0.70
2015,12,13,09,46,1.10
2015,12,13,09,47,0.00
2015,12,13,09,48,0.00
2015,12,13,09,49,0.00
2015,12,13,09,50,0.20
2015,12,13,09,51,0.10
2015,12,13,09,52,0.20
2015,12,13,09,53,1.00
2015,12,13,09,54,0.00
2015,12,13,09,55,0.00
2015,12,13,09,56,3.20
2015,12,13,09,57,1.80
2015,12,13,09,58,0.30
2015,12,13,09,59,0.00
2015,12,13,10,00,0.10
2015,12,13,10,01,1.60
2015,12,13,10,02,1.10
2015,12,13,10,03,1.20
2015,12,13,10,04,0.10
2015,12,13,10,05,1.10
2015,12,13,10,06,0.30
2015,12,13,10,07,0.40
2015,12,13,10,08,0.10
2015,12,13,10,09,0.60
2015,12,13,10,10,0.00
2015,12,13,10,11,0.20
2015,12,13,10,12,0.40
2015,12,13,10,13,0.30
2015,12,13,10,14,0.00
2015,12,13,10,15,0.00
2015,12,13,10,16,0.50
2015,12,13,10,17,0.10
2015,12,13,10,18,0.00
2015,12,13,10,19,1.80
2015,12,13,10,20,1.90
2015,12,13,10,21,0.30
2015,12,13,10,22,0.20
2015,12,13,10,23,3.30
2015,12,13,10,24,4.30
2015,12,13,10,25,2.50
2015,12,13,10,26,2.10
2015,12,13,10,27,1.40
2015,12,13,10,28,2.10
2015,12,13,10,29,1.40
2015,12,13,10,30,1.30
2015,12,13,10,31,2.00
2015,12,13,10,32,3.30
2015,12,13,10,33,1.90
2015,12,13,10,34,1.70
2015,12,13,10,35,1.30
2015,12,13,10,36,1.40
2015,12,13,10,37,0.20
2015,12,13,10,38,2.40
2015,12,13,10,39,2.70
2015,12,13,10,40,3.10
2015,12,13,10,41,2.70
2015,12,13,10,42,2.30
2015,12,13,10,43,2.90
2015,12,13,10,44,4.50
2015,12,13,10,45,4.50
2015,12,13,10,46,2.30
2015,12,13,10,47,1.90
2015,12,13,10,48,1.70
2015,12,13,10,49,3.60
2015,12,13,10,50,4.40
2015,12,13,10,51,4.60
2015,12,13,10,52,1.70
2015,12,13,10,53,3.50
2015,12,13,10,54,7.60
2015,12,13,10,55,3.80
2015,12,13,10,56,2.60
2015,12,13,10,57,3.20
2015,12,13,10,58,3.60
2015,12,13,10,59,5.40
2015,12,13,11,00,1.10
2015,12,13,11,01,2.00
2015,12,13,11,02,2.90
2015,12,13,11,03,4.80
2015,12,13,11,04,4.20
2015,12,13,11,05,4.90
2015,12,13,11,06,5.60
2015,12,13,11,07,4.00
2015,12,13,11,08,4.00
2015,12,13,11,09,3.30
2015,12,13,11,10,5.40
2015,12,13,11,11,5.10
2015,12,13,11,12,4.40
2015,12,13,11,13,4.50
2015,12,13,11,14,3.70
2015,12,13,11,15,6.70
2015,12,13,11,16,5.90
2015,12,13,11,17,3.90
2015,12,13,11,18,2.10
2015,12,13,11,19,2.40
2015,12,13,11,20,3.30
2015,12,13,11,21,4.60
2015,12,13,11,22,3.80
2015,12,13,11,23,2.90
2015,12,13,11,24,3.10
2015,12,13,11,25,3.00
2015,12,13,11,26,2.70
2015,12,13,11,27,5.40
2015,12,13,11,28,3.60
2015,12,13,11,29,2.80
2015,12,13,11,30,2.70
2015,12,13,11,31,2.80
2015,12,13,11,32,5.00
2015,12,13,11,33,7.00
2015,12,13,11,34,4.30
2015,12,13,11,35,3.70
2015,12,13,11,36,4.00
2015,12,13,11,37,4.30
2015,12,13,11,38,5.10
2015,12,13,11,39,2.50
2015,12,13,11,40,2.60
2015,12,13,11,41,4.40
2015,12,13,11,42,5.50
2015,12,13,11,43,5.30
2015,12,13,11,44,7.00
2015,12,13,11,45,5.00
2015,12,13,11,46,3.20
2015,12,13,11,47,3.50
2015,12,13,11,48,3.30
2015,12,13,11,49,5.00
2015,12,13,11,50,2.40
2015,12,13,11,51,3.60
2015,12,13,11,52,2.90
2015,12,13,11,53,1.70
2015,12,13,11,54,2.90
2015,12,13,11,55,4.30
2015,12,13,11,56,2.60
2015,12,13,11,57,5.30
2015,12,13,11,58,3.40
2015,12,13,11,59,4.60
2015,12,13,12,00,3.90
2015,12,13,12,01,5.50
2015,12,13,12,02,6.70
2015,12,13,12,03,4.90
2015,12,13,12,04,4.30
2015,12,13,12,05,3.60
2015,12,13,12,06,2.70
2015,12,13,12,07,6.90
2015,12,13,12,08,3.70
2015,12,13,12,09,5.40
2015,12,13,12,10,6.40
2015,12,13,12,11,5.10
2015,12,13,12,12,2.70
2015,12,13,12,13,6.30
2015,12,13,12,14,5.60
2015,12,13,12,15,5.60
2015,12,13,12,16,4.50
2015,12,13,12,17,4.40
2015,12,13,12,18,4.50
2015,12,13,12,19,4.80
2015,12,13,12,20,6.90
2015,12,13,12,21,5.40
2015,12,13,12,22,5.20
2015,12,13,12,23,4.30
2015,12,13,12,24,4.20
2015,12,13,12,25,3.80
2015,12,13,12,26,1.10
2015,12,13,12,27,3.50
2015,12,13,12,28,4.80
2015,12,13,12,29,3.00
2015,12,13,12,30,2.80
2015,12,13,12,31,4.60
2015,12,13,12,32,4.80
2015,12,13,12,33,2.70
2015,12,13,12,34,3.60
2015,12,13,12,35,1.50
2015,12,13,12,36,3.90
2015,12,13,12,37,3.40
2015,12,13,12,38,2.00
2015,12,13,12,39,6.40
2015,12,13,12,40,3.60
2015,12,13,12,41,4.50
2015,12,13,12,42,6.40
2015,12,13,12,43,4.40
2015,12,13,12,44,4.00
2015,12,13,12,45,4.30
2015,12,13,12,46,4.20
2015,12,13,12,47,4.00
2015,12,13,12,48,8.90
2015,12,13,12,49,8.70
2015,12,13,12,50,8.70
2015,12,13,12,51,10.30
2015,12,13,12,52,8.10
2015,12,13,12,53,2.90
2015,12,13,12,54,3.10
2015,12,13,12,55,4.10
2015,12,13,12,56,3.20
2015,12,13,12,57,1.90
2015,12,13,12,58,2.10
2015,12,13,12,59,2.60
2015,12,13,13,00,5.40
2015,12,13,13,01,2.30
2015,12,13,13,02,1.10
2015,12,13,13,03,3.40
2015,12,13,13,04,0.40
2015,12,13,13,05,1.80
2015,12,13,13,06,1.90
2015,12,13,13,07,3.10
2015,12,13,13,08,3.80
2015,12,13,13,09,2.50
2015,12,13,13,10,3.50
2015,12,13,13,11,4.90
2015,12,13,13,12,5.70
2015,12,13,13,13,3.00
2015,12,13,13,14,3.70
2015,12,13,13,15,3.70
2015,12,13,13,16,4.50
2015,12,13,13,17,3.00
2015,12,13,13,18,3.50
2015,12,13,13,19,2.60
2015,12,13,13,20,3.30
2015,12,13,13,21,5.10
2015,12,13,13,22,4.20
2015,12,13,13,23,5.20
2015,12,13,13,24,3.00
2015,12,13,13,25,3.40
2015,12,13,13,26,5.20
2015,12,13,13,27,4.50
2015,12,13,13,28,6.20
2015,12,13,13,29,5.60
2015,12,13,13,30,2.80
2015,12,13,13,31,2.50
2015,12,13,13,32,4.80
2015,12,13,13,33,6.10
2015,12,13,13,34,6.00
2015,12,13,13,35,4.20
2015,12,13,13,36,2.00
2015,12,13,13,37,3.00
2015,12,13,13,38,3.80
2015,12,13,13,39,4.00
2015,12,13,13,40,3.90
2015,12,13,13,41,8.20
2015,12,13,13,42,8.50
2015,12,13,13,43,3.80
2015,12,13,13,44,5.80
2015,12,13,13,45,7.90
2015,12,13,13,46,3.20
2015,12,13,13,47,3.80
2015,12,13,13,48,4.50
2015,12,13,13,49,5.20
2015,12,13,13,50,2.80
2015,12,13,13,51,3.20
2015,12,13,13,52,3.40
2015,12,13,13,53,3.20
2015,12,13,13,54,2.20
2015,12,13,13,55,3.80
2015,12,13,13,56,3.60
2015,12,13,13,57,5.30
2015,12,13,13,58,4.80
2015,12,13,13,59,5.20
2015,12,13,14,00,5.30
2015,12,13,14,01,6.30
2015,12,13,14,02,4.00
2015,12,13,14,03,3.10
2015,12,13,14,04,3.70
2015,12,13,14,05,6.70
2015,12,13,14,06,5.00
2015,12,13,14,07,5.40
2015,12,13,14,08,2.60
2015,12,13,14,09,2.50
2015,12,13,14,10,2.90
2015,12,13,14,11,1.40
2015,12,13,14,12,6.90
2015,12,13,14,13,2.60
2015,12,13,14,14,4.00
2015,12,13,14,15,5.20
2015,12,13,14,16,3.80
2015,12,13,14,17,2.40
2015,12,13,14,18,0.90
2015,12,13,14,19,2.60
2015,12,13,14,20,3.60
2015,12,13,14,21,2.80
2015,12,13,14,22,4.10
2015,12,13,14,23,2.40
2015,12,13,14,24,5.30
2015,12,13,14,25,8.00
2015,12,13,14,26,5.80
2015,12,13,14,27,5.70
2015,12,13,14,28,5.30
2015,12,13,14,29,4.10
2015,12,13,14,30,5.20
2015,12,13,14,31,3.80
2015,12,13,14,32,2.50
2015,12,13,14,33,3.60
2015,12,13,14,34,3.50
2015,12,13,14,35,2.30
2015,12,13,14,36,1.40
2015,12,13,14,37,2.30
2015,12,13,14,38,3.20
2015,12,13,14,39,4.90
2015,12,13,14,40,5.50
2015,12,13,14,41,2.40
2015,12,13,14,42,3.10
2015,12,13,14,43,3.90
2015,12,13,14,44,2.90
2015,12,13,14,45,3.60
2015,12,13,14,46,2.40
2015,12,13,14,47,1.40
2015,12,13,14,48,2.00
2015,12,13,14,49,2.40
2015,12,13,14,50,6.40
2015,12,13,14,51,4.40
2015,12,13,14,52,4.80
2015,12,13,14,53,3.20
2015,12,13,14,54,3.00
2015,12,13,14,55,3.80
2015,12,13,14,56,4.20
2015,12,13,14,57,3.00
2015,12,13,14,58,4.20
2015,12,13,14,59,8.90
2015,12,13,15,00,6.10
2015,12,13,15,01,7.20
2015,12,13,15,02,3.00
2015,12,13,15,03,5.20
2015,12,13,15,04,6.30
2015,12,13,15,05,6.90
2015,12,13,15,06,7.00
2015,12,13,15,07,3.70
2015,12,13,15,08,5.90
2015,12,13,15,09,8.50
2015,12,13,15,10,8.40
2015,12,13,15,11,7.10
2015,12,13,15,12,7.30
2015,12,13,15,13,8.30
2015,12,13,15,14,6.80
2015,12,13,15,15,7.60
2015,12,13,15,16,11.00
2015,12,13,15,17,6.80
2015,12,13,15,18,5.80
2015,12,13,15,19,6.50
2015,12,13,15,20,6.70
2015,12,13,15,21,7.10
2015,12,13,15,22,7.60
2015,12,13,15,23,8.20
2015,12,13,15,24,5.70
2015,12,13,15,25,4.30
2015,12,13,15,26,9.20
2015,12,13,15,27,6.10
2015,12,13,15,28,3.70
2015,12,13,15,29,5.50
2015,12,13,15,30,6.40
2015,12,13,15,31,6.20
2015,12,13,15,32,5.50
2015,12,13,15,33,10.30
2015,12,13,15,34,4.40
2015,12,13,15,35,7.20
2015,12,13,15,36,5.10
2015,12,13,15,37,4.70
2015,12,13,15,38,4.30
2015,12,13,15,39,5.10
2015,12,13,15,40,4.00
2015,12,13,15,41,3.70
2015,12,13,15,42,4.10
2015,12,13,15,43,5.40
2015,12,13,15,44,4.20
2015,12,13,15,45,3.30
2015,12,13,15,46,5.30
2015,12,13,15,47,4.50
2015,12,13,15,48,10.10
2015,12,13,15,49,10.00
2015,12,13,15,50,9.00
2015,12,13,15,51,4.80
2015,12,13,15,52,4.40
2015,12,13,15,53,3.10
2015,12,13,15,54,4.10
2015,12,13,15,55,4.40
2015,12,13,15,56,8.60
2015,12,13,15,57,6.90
2015,12,13,15,58,4.30
2015,12,13,15,59,3.40
2015,12,13,16,00,3.60
2015,12,13,16,01,4.20
2015,12,13,16,02,3.50
2015,12,13,16,03,4.50
2015,12,13,16,04,5.40
2015,12,13,16,05,6.10
2015,12,13,16,06,6.00
2015,12,13,16,07,4.40
2015,12,13,16,08,2.70
2015,12,13,16,09,3.80
2015,12,13,16,10,0.70
2015,12,13,16,11,4.00
2015,12,13,16,12,7.60
2015,12,13,16,13,9.40
2015,12,13,16,14,6.60
2015,12,13,16,15,4.30
2015,12,13,16,16,5.80
2015,12,13,16,17,7.20
2015,12,13,16,18,4.80
2015,12,13,16,19,3.70
2015,12,13,16,20,4.90
2015,12,13,16,21,3.40
2015,12,13,16,22,4.00
2015,12,13,16,23,3.20
2015,12,13,16,24,7.70
2015,12,13,16,25,2.90
2015,12,13,16,26,3.80
2015,12,13,16,27,3.20
2015,12,13,16,28,4.80
2015,12,13,16,29,5.30
2015,12,13,16,30,5.70
2015,12,13,16,31,6.80
2015,12,13,16,32,9.70
2015,12,13,16,33,3.90
2015,12,13,16,34,5.10
2015,12,13,16,35,5.40
2015,12,13,16,36,7.10
2015,12,13,16,37,5.40
2015,12,13,16,38,6.30
2015,12,13,16,39,5.70
2015,12,13,16,40,5.80
2015,12,13,16,41,5.40
2015,12,13,16,42,5.70
2015,12,13,16,43,7.00
2015,12,13,16,44,8.00
2015,12,13,16,45,4.70
2015,12,13,16,46,13.60
2015,12,13,16,47,7.20
2015,12,13,16,48,5.30
2015,12,13,16,49,6.90
2015,12,13,16,50,8.50
2015,12,13,16,51,7.40
2015,12,13,16,52,6.60
2015,12,13,16,53,5.70
2015,12,13,16,54,9.10
2015,12,13,16,55,6.30
2015,12,13,16,56,4.90
2015,12,13,16,57,4.80
2015,12,13,16,58,4.50
2015,12,13,16,59,7.20
2015,12,13,17,00,4.50
2015,12,13,17,01,5.40
2015,12,13,17,02,3.70
2015,12,13,17,03,4.60
2015,12,13,17,04,3.30
2015,12,13,17,05,5.10
2015,12,13,17,06,6.10
2015,12,13,17,07,3.50
2015,12,13,17,08,5.10
2015,12,13,17,09,6.70
2015,12,13,17,10,3.60
2015,12,13,17,11,5.00
2015,12,13,17,12,5.40
2015,12,13,17,13,3.20
2015,12,13,17,14,4.70
2015,12,13,17,15,4.50
2015,12,13,17,16,8.80
2015,12,13,17,17,4.60
2015,12,13,17,18,4.20
2015,12,13,17,19,4.30
2015,12,13,17,20,3.20
2015,12,13,17,21,4.80
2015,12,13,17,22,4.00
2015,12,13,17,23,3.00
2015,12,13,17,24,7.60
2015,12,13,17,25,5.40
2015,12,13,17,26,5.80
2015,12,13,17,27,4.00
2015,12,13,17,28,6.00
2015,12,13,17,29,3.60
2015,12,13,17,30,4.90
2015,12,13,17,31,5.70
2015,12,13,17,32,6.50
2015,12,13,17,33,4.50
2015,12,13,17,34,3.20
2015,12,13,17,35,3.70
2015,12,13,17,36,6.30
2015,12,13,17,37,4.80
2015,12,13,17,38,3.50
2015,12,13,17,39,3.00
2015,12,13,17,40,4.30
2015,12,13,17,41,7.30
2015,12,13,17,42,3.60
2015,12,13,17,43,3.60
2015,12,13,17,44,4.20
2015,12,13,17,45,5.90
2015,12,13,17,46,7.50
2015,12,13,17,47,7.00
2015,12,13,17,48,5.10
2015,12,13,17,49,4.80
2015,12,13,17,50,7.00
2015,12,13,17,51,6.70
2015,12,13,17,52,5.70
2015,12,13,17,53,6.90
2015,12,13,17,54,3.50
2015,12,13,17,55,6.10
2015,12,13,17,56,3.60
2015,12,13,17,57,7.90
2015,12,13,17,58,5.40
2015,12,13,17,59,6.80
2015,12,13,18,00,7.90
2015,12,13,18,01,6.00
2015,12,13,18,02,9.20
2015,12,13,18,03,5.70
2015,12,13,18,04,8.00
2015,12,13,18,05,6.60
2015,12,13,18,06,7.90